Point Mugu NAWC, CA

7:24 AM PST on December 10, 2016 (GMT -0800)
Point Mugu Naval Air Station

Weather History for KNTD - August, 2014

Change the Weather History Date:

Wednesday, August 27, 2014

  Actual Average Record
Temperature  
Mean Temperature 72 °F -  
Max Temperature 88 °F 71 °F 88 °F (2014)
Min Temperature 61 °F 56 °F 51 °F (2002)
Cooling Degree Days 8    
Growing Degree Days 22 (Base 50)    
Moisture  
Dew Point 59 °F    
Average Humidity 64    
Maximum Humidity 81    
Minimum Humidity 40    
Precipitation  
Precipitation 0.00 in - - ()
Sea Level Pressure  
Sea Level Pressure 30.02 in    
Wind  
Wind Speed 4 mph (WNW)    
Max Wind Speed 13 mph    
Max Gust Speed -    
Visibility 9 miles    
Events      
Averages and records for this station are not official NWS values.
T = Trace of Precipitation, MM = Missing Value Source: NWS Daily Summary

Daily Weather History Graph

Daily Weather History Graph

Search for Another Location

Airport or City:

Trip Planner

Search our weather history database for the weather conditions in past years. The results will help you decide how hot, cold, wet, or windy it might be!

Date:

Astronomy

Aug. 27, 2014 Rise Set
Actual Time 6:26 AM PDT 7:28 PM PDT
Civil Twilight 6:00 AM PDT 7:54 PM PDT
Nautical Twilight 5:30 AM PDT 8:25 PM PDT
Astronomical Twilight 4:58 AM PDT 8:56 PM PDT
Moon 8:19 AM PDT (8/27) 8:32 PM PDT (8/27)
Length of Visible Light 13h 53m
Length of Day
13h 02m
Waxing Crescent, 4% of the Moon is Illuminated
Aug 27
Waxing Crescent
Sep 2
First Quarter
Sep 8
Full
Sep 15
Last Quarter
Sep 23
New

Hourly Weather History & Observations

Time (PDT) Temp. Heat Index Dew Point Humidity Pressure Visibility Wind Dir Wind Speed Gust Speed Precip Events Conditions
12:56 AM 64.9 °F - 57.9 °F 78% 29.99 in 10.0 mi Calm Calm - N/A   Clear
1:46 AM 64.9 °F - 59.0 °F 81% 29.99 in 3.0 mi Calm Calm - N/A   Haze
1:56 AM 64.0 °F - 57.9 °F 80% 29.99 in 2.5 mi Calm Calm - N/A   Haze
2:10 AM 64.0 °F - 57.9 °F 80% 29.99 in 3.0 mi Calm Calm - N/A   Haze
2:56 AM 64.0 °F - 57.9 °F 80% 29.99 in 9.0 mi NNE 3.5 mph - N/A   Clear
3:56 AM 62.1 °F - 55.9 °F 80% 29.99 in 10.0 mi Calm Calm - N/A   Clear
4:56 AM 62.1 °F - 55.9 °F 80% 30.01 in 10.0 mi NE 3.5 mph - N/A   Clear
5:56 AM 61.0 °F - 55.0 °F 81% 30.02 in 10.0 mi SW 3.5 mph - N/A   Clear
6:56 AM 63.0 °F - 55.9 °F 78% 30.04 in 9.0 mi NNE 4.6 mph - N/A   Clear
7:56 AM 70.0 °F - 57.0 °F 63% 30.04 in 10.0 mi NNE 4.6 mph - N/A   Clear
8:56 AM 77.0 °F - 59.0 °F 54% 30.04 in 10.0 mi NE 3.5 mph - N/A   Clear
9:56 AM 82.9 °F 82.4 °F 57.0 °F 41% 30.04 in 10.0 mi NW 3.5 mph - N/A   Clear
10:56 AM 82.9 °F 82.8 °F 59.0 °F 44% 30.05 in 10.0 mi WSW 9.2 mph - N/A   Clear
11:56 AM 82.9 °F 82.6 °F 57.9 °F 42% 30.05 in 10.0 mi WSW 9.2 mph - N/A   Clear
12:56 PM 84.0 °F 83.8 °F 59.0 °F 43% 30.04 in 10.0 mi WSW 8.1 mph - N/A   Clear
1:56 PM 84.9 °F 84.2 °F 57.9 °F 40% 30.03 in 10.0 mi West 10.4 mph - N/A   Clear
2:56 PM 82.9 °F 83.2 °F 60.1 °F 46% 30.02 in 10.0 mi West 10.4 mph - N/A   Clear
3:56 PM 84.0 °F 83.8 °F 59.0 °F 43% 30.01 in 10.0 mi West 11.5 mph - N/A   Clear
4:56 PM 80.1 °F 81.1 °F 61.0 °F 52% 30.00 in 10.0 mi West 12.7 mph - N/A   Clear
5:56 PM 80.1 °F 80.4 °F 57.0 °F 45% 30.00 in 10.0 mi West 10.4 mph - N/A   Clear
6:56 PM 78.1 °F - 59.0 °F 52% 30.00 in 10.0 mi West 5.8 mph - N/A   Clear
7:56 PM 73.0 °F - 60.1 °F 64% 30.01 in 9.0 mi NW 3.5 mph - N/A   Clear
8:56 PM 69.1 °F - 60.1 °F 73% 30.02 in 5.0 mi WSW 4.6 mph - N/A   Haze
9:56 PM 69.1 °F - 62.1 °F 78% 30.03 in 6.0 mi WSW 5.8 mph - N/A   Haze
10:56 PM 68.0 °F - 62.1 °F 81% 30.03 in 8.0 mi North 4.6 mph - N/A   Clear
11:56 PM 69.1 °F - 62.1 °F 78% 30.02 in 10.0 mi NW 6.9 mph - N/A   Clear